Regional Weather Roundup
Issued by NWS

Home | Current Version | Previous Version | Text Only | Print | Product List | Glossary On
Versions: 1 2 3 4 5 6 7 8 9 10 11 12 13 14 15 16 17 18 19 20 21 22 23 24 25 26 27 28 29 30 31 32 33 34 35 36 37 38 39 40 41 42 43 44 45 46 47 48 49 50
985
ASUS44 KLIX 220610
RWRLA
LOUISIANA WEATHER ROUNDUP
NATIONAL WEATHER SERVICE NEW ORLEANS LA
100 AM CDT MON SEP 22 2014

NOTE: "FAIR" INDICATES FEW OR NO CLOUDS BELOW 12,000 FEET WITH NO
      SIGNIFICANT WEATHER AND/OR OBSTRUCTIONS TO VISIBILITY.
      SKY/WX - SKY CONDITION AND SIGNIFICANT WEATHER.
      TMP - AIR TEMPERATURE.    DP   - DEWPOINT TEMPERATURE.
      RH  - RELATIVE HUMIDITY.  PRES - PRESSURE.
      HX  - HEAT INDEX.         WCI  - WIND CHILL INDEX.

*  THESE STATIONS ARE NOT NWS OR FAA STATIONS AND ARE NOT UNDER
   NWS QUALITY CONTROL.

LAZ040-048-061>063-065-066-069-220700-
SOUTHEAST LOUISIANA

CITY           SKY/WX    TMP DP  RH WIND       PRES   REMARKS
N.O. AUDUBON     N/A     76  73  91 MISG        N/A
6HR MIN TEMP:  75; 6HR MAX TEMP:  85;

N.O. INTL ARPT PTCLDY    74  68  81 CALM      30.01S
6HR MIN TEMP:  73; 6HR MAX TEMP:  84;

N.O. LAKEFRONT CLEAR     78  70  76 S3        30.01F
6HR MIN TEMP:  78; 6HR MAX TEMP:  83;

N.O. DOWNTOWN* FAIR      81  66  61 CALM      30.01F
6HR MIN TEMP:  81; 6HR MAX TEMP:  84;

SLIDELL        CLEAR     69  66  90 CALM      30.01S
6HR MIN TEMP:  69; 6HR MAX TEMP:  82;

BATON ROUGE    CLEAR     70  68  93 CALM      30.02F
6HR MIN TEMP:  70; 6HR MAX TEMP:  82;

BOOTHVILLE     CLEAR     79  72  79 CALM      30.00S
6HR MIN TEMP:  79; 6HR MAX TEMP:  82;

BELLE CHASSE   CLEAR     72  68  87 CALM      30.00S
6HR MIN TEMP:  71; 6HR MAX TEMP:  79;

BOGALUSA*      FAIR      69  66  90 CALM      30.04S FOG
6HR MIN TEMP:  68; 6HR MAX TEMP:  80;

GALLIANO*      NOT AVBL
NEW ROADS*     FAIR      70  69  96 CALM      30.02F
6HR MIN TEMP:  70; 6HR MAX TEMP:  83;

GONZALES*      FAIR      69  69 100 CALM      30.02S
6HR MIN TEMP:  68; 6HR MAX TEMP:  77;

HAMMOND*       CLEAR     70  66  88 CALM      30.04S
HOUMA*         CLEAR     71  66  84 CALM      30.01F
6HR MIN TEMP:  71; 6HR MAX TEMP:  81;

PORT FOURCHON* CLEAR     79  73  83 NE5       30.03S

$$

LAZ041-044-053-054-220700-
SOUTHWEST LOUISIANA

CITY           SKY/WX    TMP DP  RH WIND       PRES   REMARKS
LAKE CHARLES   CLEAR     73  71  93 CALM      30.02S
6HR MIN TEMP:  73; 6HR MAX TEMP:  84;

LAFAYETTE      CLEAR     73  72  96 CALM      30.02F
6HR MIN TEMP:  73; 6HR MAX TEMP:  83;

PATTERSON      CLEAR     70  70 100 CALM      30.04S
6HR MIN TEMP:  70; 6HR MAX TEMP:  81;

SALT POINT       N/A     75  71  87 CALM      30.01F
6HR MIN TEMP:  75; 6HR MAX TEMP:  84;

NEW IBERIA     CLEAR     72  70  93 CALM      30.03S
6HR MIN TEMP:  71; 6HR MAX TEMP:  84;

CHENAULT AIRPK CLEAR     73  72  96 CALM      30.03S
6HR MIN TEMP:  72; 6HR MAX TEMP:  84;


$$

LAZ027-028-220700-
CENTRAL LOUISIANA

CITY           SKY/WX    TMP DP  RH WIND       PRES   REMARKS
FORT POLK      CLEAR     73  71  93 CALM      30.03F
6HR MIN TEMP:  73; 6HR MAX TEMP:  84;

ALEXANDRIA INT CLEAR     72  70  93 CALM      30.01F
6HR MIN TEMP:  71; 6HR MAX TEMP:  83;

ALEXANDRIA     CLEAR     71  69  93 CALM      30.03S
6HR MIN TEMP:  71; 6HR MAX TEMP:  82;


$$

LAZ001-002-220700-
NORTHWEST LOUISIANA

CITY           SKY/WX    TMP DP  RH WIND       PRES   REMARKS
SHREVEPORT     MOCLDY    79  69  71 NE5       30.05S
6HR MIN TEMP:  78; 6HR MAX TEMP:  89;

BARKSDALE AFB  CLEAR     76  69  80 N2        30.06S
6HR MIN TEMP:  76; 6HR MAX TEMP:  86;

DTN SHREVEPORT CLOUDY    77  70  79 NE5       30.05S
6HR MIN TEMP:  76; 6HR MAX TEMP:  84;


$$

LAZ014-016-220700-
NORTHEAST LOUISIANA

CITY           SKY/WX    TMP DP  RH WIND       PRES   REMARKS
MONROE         MOCLDY    74  71  91 CALM      30.05F
6HR MIN TEMP:  74; 6HR MAX TEMP:  83;

TALLULAH       CLEAR     72  68  87 CALM      30.03S
6HR MIN TEMP:  70; 6HR MAX TEMP:  83;


$$




USA.gov is the U.S. government's official web portal to all federal, state and local government web resources and services.